Regional Weather Roundup
Issued by NWS Midland/Odessa, TX

Skip options and go directly to product.
Home | Oldest Version | Next Version | Current Version | All | Text Only | Save Text | Print | Product List | Glossary On

Skip product version selection by date and time.   
401
ASUS44 KMAF 261010
RWRMAF
MIDLAND AREA WEATHER ROUNDUP
NATIONAL WEATHER SERVICE MIDLAND TX
500 AM CDT TUE AUG 26 2014

...IN SOUTHWEST TEXAS AND SOUTHEAST NEW MEXICO...

CITY           SKY/WX    TMP DP  RH WIND       PRES   REMARKS
ALPINE         CLEAR     63  58  85 W7        30.20S
ANDREWS        FAIR      74  63  67 SE5       30.08R
ARTESIA        NOT AVBL
BIG SPRING     CLEAR     76  57  51 SE8       30.07R
CARLSBAD       PTCLDY    69  66  90 CALM      30.07S
DRYDEN           N/A     79  59  50 NE5       30.00S
FORT STOCKTON  CLEAR     70  60  70 S7        30.06S
GUAD PASS      PTCLDY    70  51  51 E9        30.23R
HOBBS          MOCLDY    72  63  73 W7        30.11R
MARFA          CLEAR     63  57  82 N7        30.19S
MIDLAND AIRPK  PTCLDY    77  61  57 CALM      30.06S
MIDLAND INTL   MOCLDY    76  58  53 S6        30.05S
ODESSA         PTCLDY    76  58  53 SE7       30.07R
PECOS          MOCLDY    71  68  89 CALM      30.05R
PRESIDIO       FAIR      80  57  44 N10       30.02S
SEMINOLE       CLOUDY    71  60  68 CALM      30.09S
SNYDER         CLEAR     75  58  55 S5        30.05S
WINK           CLOUDY    76  68  76 W3        30.04R
$$
...OTHER STATIONS IN TEXAS...

CITY           SKY/WX    TMP DP  RH WIND       PRES   REMARKS
ABILENE        CLEAR     78  58  49 S8        30.02R
AMARILLO       CLOUDY    67  63  87 SE12      30.15R
AUSTIN         MOCLDY    74  68  81 CALM      29.96R
BROWNSVILLE    CLEAR     76  76 100 CALM      29.91S
CORPUS CHRISTI PTCLDY    75  70  84 CALM      29.92R
DALLAS FTW     MOCLDY    80  69  69 SE5       29.98R
DEL RIO        CLEAR     81  65  58 E7        29.95R
EL PASO        FAIR      70  59  68 E3        30.09S
HOUSTON INT    MOCLDY    75  72  88 NE3       29.95S
LUBBOCK        MOCLDY    71  64  78 NE9       30.09S
SAN ANGELO     CLEAR     74  59  59 S3        30.01R
SAN ANTONIO    PTCLDY    80  71  74 S3        29.96F
WACO           MOCLDY    77  67  71 E5        29.97R
WICHITA FALLS  NOT AVBL
$$
...OTHER LOCATIONS IN NEW MEXICO...

CITY           SKY/WX    TMP DP  RH WIND       PRES   REMARKS
ALAMAGORDO     MOCLDY    68  57  68 SW3       30.12F
ALBUQUERQUE    PTCLDY    69  49  48 CALM      30.21R
CANNON AFB     CLEAR     62  58  87 E1        30.16R
CLOVIS           N/A     61  55  82 CALM      30.18S
HOLLOMAN AFB   MOCLDY    71  58  63 SE1       30.10S
ROSWELL        MOCLDY    68  63  84 E5        30.09S
RUIDOSO        MOCLDY    57  54  88 CALM      30.31S
SANTA FE       CLEAR     57  47  69 NW3       30.26S
TRUTH OR CONSE FAIR      68  55  63 NW5       30.14R
TUCUMCARI      CLEAR     64  54  69 S3        30.12S
$$

USA.gov is the U.S. government's official web portal to all federal, state and local government web resources and services.